Temp
4 4 4 4 4 4 4 4 4 4 5 5 4 4 4 4 4 4 4 4 4 4 4 4 4 4 4 4 4 4 4 4 4 4 3 3 3 3 3 3 3 3
4 4 4 4 4 4 4 4 4 4 5 5 4 4 4 4 4 4 4 4 4 4 4 5 4 4 4 4 4 3 3 3 3 3 3 3 3 3 3 3 3 3
5 4 4 4 4 3 4 4 4 4 4 5 4 4 4 4 4 4 4 4 4 4 4 4 4 4 4 4 4 3 3 3 3 3 3 3 3 2 2 3 2 2
5 4 4 4 3 3 4 4 4 4 4 4 4 4 4 4 4 4 4 4 4 4 4 4 4 4 4 4 4 4 3 3 3 3 3 3 3 2 2 3 3 2
5 4 4 4 4 4 4 4 4 4 4 4 4 4 4 4 4 4 4 4 4 4 4 4 4 4 4 4 4 4 3 3 3 3 3 3 3 3 3 3 3 3
4 4 4 4 4 4 4 4 4 4 4 4 4 4 4 4 4 4 4 4 4 4 4 4 4 4 4 4 4 4 3 3 3 3 3 3 3 3 3 3 3 3
4 4 3 3 4 3 3 4 4 4 4 4 4 4 4 4 4 4 4 4 4 4 4 4 4 4 4 4 4 4 3 3 3 3 2 2 2 2 2 3 3 2
3 3 3 3 3 3 3 4 4 4 4 3 4 4 4 4 4 4 4 4 4 4 4 4 4 4 4 4 4 3 3 3 3 3 2 2 2 2 2 2 2 2
3 3 3 3 3 3 3 3 4 4 3 3 4 4 4 4 4 4 4 4 4 4 4 4 4 4 4 4 4 3 3 3 3 2 2 2 2 2 2 2 2 2
2 3 3 3 3 3 3 3 4 3 3 3 4 4 4 4 4 4 4 4 4 4 4 4 4 4 4 4 4 3 3 3 3 2 2 2 2 2 2 2 2 2
2 2 2 2 3 3 3 3 3 3 3 3 3 3 3 3 4 3 3 3 3 3 3 3 3 4 4 4 3 3 3 3 3 3 2 2 2 2 2 2 2 2
2 2 2 2 2 3 3 3 3 3 3 3 3 3 3 3 3 3 3 3 3 3 3 3 3 3 3 3 3 3 3 3 3 3 2 2 2 2 2 2 2 2
2 2 2 2 2 3 3 3 3 3 3 3 3 3 3 3 3 3 3 3 3 3 3 3 3 3 3 3 3 3 3 3 3 3 2 2 2 2 2 1 1 1
2 2 2 2 2 2 3 3 3 3 3 3 3 3 3 3 3 2 2 2 2 2 2 2 3 3 3 3 3 3 2 2 2 2 2 2 2 1 1 1 1 1
1 1 2 1 1 2 2 2 2 2 2 2 2 2 2 3 2 2 2 2 2 2 2 2 2 2 2 2 2 2 2 2 2 2 2 1 1 1 1 1 1 1
1 1 1 1 1 1 1 2 2 2 2 2 2 2 2 2 2 2 2 2 2 2 2 2 2 2 2 2 2 2 2 2 1 1 1 1 1 1 1 1 1 1
1 1 1 1 1 1 1 1 1 2 2 2 2 2 2 2 2 2 2 2 2 2 2 2 2 2 2 1 1 1 1 1 1 1 1 1 0 0 0 0 0 0
1 1 1 1 1 1 1 1 1 1 1 2 2 2 2 2 2 2 2 2 2 2 1 1 1 1 1 1 1 1 1 1 1 1 0 0 0 -0 -0 -0 -0 -0
1 1 1 1 0 1 1 1 1 1 1 1 1 1 1 1 1 2 2 2 2 1 1 1 1 1 1 1 0 0 0 0 -0 -0 -0 -0 -0 -0 -0 -0 -0 -0
1 1 1 0 0 0 0 0 0 1 1 1 1 1 1 1 1 1 1 1 1 1 1 1 1 1 0 0 0 -0 -0 -0 -0 -0 -1 -1 -0 -1 -1 -1 -1 -0
0 0 0 0 -0 -0 -0 -0 -0 -0 -0 -0 0 0 1 1 1 1 1 1 1 1 1 0 0 0 0 0 0 -0 -0 -0 -0 -1 -1 -1 -1 -1 -1 -1 -1 -1
0 0 0 0 -0 -0 -0 -0 -1 -1 -1 -0 -0 -0 0 0 0 0 -0 -0 -0 -0 -0 -0 -0 -0 -0 -0 -0 -0 -0 -0 -1 -1 -1 -1 -1 -1 -1 -1 -1 -1
0 0 0 0 0 -0 -0 -0 -0 -0 -0 -0 -0 -0 -0 -0 -0 -1 -1 -1 -1 -1 -1 -1 -1 -1 -1 -1 -1 -1 -1 -1 -1 -2 -2 -2 -1 -1 -1 -1 -1 -1
-0 -0 -0 0 -0 -0 -0 -0 -0 -0 -0 -0 -1 -1 -1 -1 -1 -1 -1 -1 -1 -1 -2 -2 -2 -1 -1 -2 -2 -2 -2 -2 -2 -2 -2 -2 -2 -1 -1 -1 -1 -1
-0 -0 -0 -0 -0 -0 -0 -0 -0 -0 -1 -1 -1 -1 -1 -1 -1 -1 -1 -1 -1 -1 -1 -1 -1 -1 -2 -2 -2 -2 -2 -2 -2 -2 -2 -2 -2 -1 -1 -1 -1 -1
-1 -0 -0 -0 -1 -1 -0 -0 -1 -1 -1 -1 -1 -1 -1 -1 -1 -1 -1 -1 -1 -1 -1 -1 -1 -1 -1 -2 -2 -2 -2 -2 -2 -2 -2 -2 -2 -1 -1 -1 -1 -1
Height
3117 3119 3122 3124 3126 3128 3130 3132 3135 3136 3138 3139 3140 3141 3142 3143 3144 3145 3146 3146 3147 3148 3148 3149 3150 3150 3150 3150 3151 3152 3152 3153 3154 3154 3155 3156 3156 3157 3158 3159 3159 3160
3115 3118 3120 3122 3124 3126 3128 3131 3133 3136 3137 3138 3139 3140 3141 3142 3143 3144 3145 3146 3146 3147 3148 3148 3149 3149 3149 3150 3150 3151 3152 3153 3153 3154 3154 3155 3155 3156 3157 3158 3158 3159
3114 3116 3118 3120 3122 3124 3127 3129 3132 3134 3135 3136 3138 3139 3141 3142 3143 3144 3145 3145 3146 3146 3147 3147 3148 3148 3149 3149 3150 3151 3152 3153 3153 3154 3154 3154 3155 3156 3156 3157 3158 3158
3113 3114 3116 3118 3120 3122 3125 3128 3130 3133 3134 3135 3137 3139 3140 3142 3143 3144 3144 3145 3146 3146 3146 3147 3147 3147 3148 3148 3149 3150 3151 3152 3153 3154 3154 3154 3155 3155 3155 3156 3157 3158
3110 3112 3114 3116 3118 3121 3124 3127 3129 3131 3133 3135 3136 3138 3140 3141 3142 3143 3144 3144 3145 3146 3146 3146 3146 3146 3147 3147 3148 3149 3151 3152 3153 3154 3154 3154 3154 3154 3155 3156 3157 3158
3108 3110 3112 3114 3117 3120 3123 3125 3128 3130 3132 3134 3136 3138 3139 3140 3141 3142 3143 3144 3144 3145 3145 3145 3145 3146 3146 3147 3147 3148 3150 3151 3152 3153 3154 3154 3154 3154 3155 3156 3157 3157
3106 3108 3110 3113 3116 3119 3122 3124 3127 3129 3131 3133 3135 3137 3138 3140 3141 3142 3142 3143 3144 3144 3144 3145 3145 3145 3146 3146 3147 3148 3149 3150 3151 3152 3153 3153 3153 3153 3154 3155 3156 3157
3106 3108 3110 3113 3115 3118 3121 3123 3126 3128 3130 3133 3135 3136 3138 3139 3140 3141 3142 3142 3143 3143 3144 3144 3145 3145 3145 3146 3147 3147 3148 3149 3151 3152 3153 3153 3153 3153 3153 3155 3156 3156
3106 3108 3110 3113 3116 3118 3120 3123 3125 3128 3130 3132 3134 3136 3137 3138 3139 3140 3141 3142 3143 3143 3144 3144 3144 3145 3145 3146 3147 3147 3148 3149 3150 3152 3153 3153 3153 3153 3153 3154 3155 3156
3105 3107 3110 3113 3116 3118 3120 3123 3126 3128 3130 3132 3134 3135 3136 3138 3139 3140 3141 3141 3142 3143 3143 3144 3144 3145 3145 3146 3147 3147 3148 3149 3150 3151 3152 3153 3153 3153 3153 3154 3155 3156
3103 3106 3110 3113 3115 3118 3121 3123 3125 3128 3130 3132 3134 3135 3136 3137 3138 3139 3140 3141 3141 3142 3143 3143 3144 3144 3145 3145 3146 3147 3148 3149 3150 3151 3152 3153 3153 3153 3154 3154 3155 3156
3102 3105 3109 3112 3115 3118 3121 3123 3125 3127 3130 3131 3133 3134 3135 3136 3137 3138 3139 3140 3141 3142 3142 3143 3144 3144 3145 3145 3146 3146 3147 3148 3149 3151 3152 3153 3153 3154 3154 3155 3155 3156
3103 3105 3108 3111 3114 3117 3120 3122 3124 3126 3128 3130 3132 3133 3134 3135 3136 3137 3139 3139 3140 3141 3142 3143 3143 3144 3144 3145 3145 3146 3147 3148 3149 3150 3151 3152 3153 3154 3154 3155 3156 3156
3103 3105 3108 3110 3113 3116 3118 3120 3122 3124 3127 3128 3130 3132 3133 3134 3135 3137 3138 3138 3139 3140 3141 3142 3142 3143 3144 3144 3145 3146 3147 3148 3149 3150 3151 3152 3153 3154 3154 3155 3156 3156
3102 3105 3107 3109 3111 3113 3116 3119 3121 3122 3125 3127 3129 3131 3132 3132 3134 3136 3136 3137 3138 3139 3139 3140 3142 3143 3144 3144 3145 3145 3146 3147 3148 3149 3150 3151 3152 3153 3154 3155 3155 3156
3103 3104 3106 3107 3109 3112 3114 3116 3118 3121 3123 3126 3128 3129 3130 3131 3133 3134 3135 3136 3136 3137 3138 3140 3141 3142 3143 3144 3144 3145 3146 3147 3148 3149 3150 3151 3152 3153 3154 3154 3155 3156
3102 3103 3105 3106 3108 3111 3112 3114 3116 3119 3122 3124 3126 3127 3129 3130 3131 3132 3133 3134 3134 3135 3138 3139 3140 3141 3142 3143 3144 3145 3146 3146 3147 3148 3149 3150 3151 3152 3153 3154 3154 3155
3101 3102 3103 3105 3107 3109 3110 3112 3115 3117 3119 3122 3124 3125 3127 3128 3129 3130 3130 3131 3133 3135 3137 3138 3139 3140 3141 3142 3143 3144 3145 3146 3147 3148 3148 3149 3150 3151 3152 3153 3153 3154
3099 3101 3103 3104 3105 3107 3109 3111 3113 3115 3118 3121 3123 3124 3125 3127 3128 3129 3129 3131 3133 3134 3136 3136 3137 3138 3139 3140 3141 3142 3144 3145 3146 3147 3148 3148 3149 3150 3150 3151 3151 3151
3099 3100 3102 3103 3104 3105 3107 3109 3112 3114 3117 3120 3122 3123 3124 3125 3126 3127 3128 3129 3131 3132 3134 3135 3136 3136 3137 3138 3139 3140 3141 3142 3144 3145 3146 3147 3148 3148 3148 3148 3148 3148
3098 3099 3100 3102 3103 3104 3106 3107 3110 3112 3115 3117 3119 3120 3122 3123 3124 3125 3126 3127 3128 3130 3132 3133 3134 3134 3135 3136 3136 3137 3139 3140 3141 3143 3144 3145 3146 3146 3146 3146 3146 3146
3096 3097 3098 3100 3102 3103 3105 3106 3108 3110 3112 3114 3116 3117 3118 3119 3121 3122 3124 3126 3127 3129 3130 3131 3132 3132 3133 3134 3135 3136 3137 3138 3140 3141 3142 3142 3142 3142 3142 3143 3143 3144
3095 3096 3097 3099 3100 3101 3104 3106 3107 3108 3110 3112 3113 3114 3115 3117 3118 3120 3122 3124 3125 3126 3127 3128 3130 3130 3131 3132 3133 3134 3135 3136 3137 3138 3139 3139 3138 3139 3140 3141 3141 3141
3093 3095 3096 3097 3099 3101 3103 3105 3106 3107 3109 3110 3112 3113 3114 3115 3117 3119 3120 3121 3122 3123 3124 3125 3126 3127 3129 3130 3131 3132 3132 3133 3134 3135 3136 3136 3136 3137 3138 3138 3139 3139
3093 3094 3095 3097 3098 3100 3102 3104 3105 3107 3108 3109 3111 3112 3113 3114 3116 3117 3118 3119 3120 3121 3122 3122 3123 3124 3126 3127 3128 3129 3129 3130 3131 3132 3133 3134 3135 3135 3135 3136 3136 3137
3093 3094 3095 3097 3098 3100 3102 3103 3105 3106 3107 3109 3110 3111 3112 3114 3115 3116 3116 3117 3118 3119 3120 3120 3121 3122 3123 3124 3125 3126 3127 3128 3129 3130 3131 3132 3132 3132 3132 3132 3134 3135
Wind_Speed
12 15 17 18 20 22 24 25 23 21 21 20 18 16 14 12 10 9 7 7 7 7 8 8 9 9 10 10 10 9 9 8 7 8 9 8 8 8 8 8 8 8
13 17 18 18 20 24 27 27 26 24 23 22 19 17 14 12 10 8 7 7 7 7 8 8 9 9 9 10 10 10 9 8 7 7 8 9 8 8 8 8 8 8
14 17 17 18 21 27 30 29 28 27 25 22 19 16 13 11 9 8 7 6 7 7 7 8 8 9 9 9 9 10 10 9 7 7 9 9 9 9 8 7 7 7
14 17 18 19 24 30 31 28 27 29 26 21 18 16 13 11 9 7 6 5 6 7 7 7 8 9 8 9 9 9 9 9 7 6 8 8 8 8 8 7 7 5
17 19 20 22 26 29 29 27 29 28 25 21 19 16 13 10 8 6 5 4 5 6 7 7 8 8 8 8 8 8 9 9 7 6 7 7 7 8 8 8 8 5
20 22 23 24 27 28 26 28 30 28 24 21 18 15 12 9 7 5 4 4 5 5 6 7 7 7 7 7 7 7 8 8 8 7 7 6 6 7 8 8 8 8
23 24 25 25 27 27 26 29 30 27 23 21 17 14 12 8 6 5 4 4 4 5 6 6 7 7 7 7 7 7 8 8 8 7 7 7 6 5 5 6 7 8
26 26 26 26 27 26 28 31 30 26 23 20 17 14 11 8 6 6 5 4 4 4 5 6 6 7 7 7 7 7 8 8 7 7 7 6 6 5 5 5 7 7
28 27 26 26 26 26 30 32 29 26 23 20 17 14 10 8 8 6 6 5 4 4 5 5 6 6 6 6 7 7 7 6 6 7 7 6 6 6 6 6 6 6
30 29 27 25 26 28 32 32 28 25 22 19 18 15 11 10 9 6 5 5 4 4 4 5 6 7 6 6 6 6 6 6 7 8 8 7 6 5 6 6 6 6
30 30 28 26 27 30 32 31 28 25 22 20 18 15 12 10 8 6 4 4 4 4 4 5 6 7 7 7 6 6 6 6 7 8 8 7 6 6 6 6 6 6
28 30 29 28 28 30 31 30 28 24 22 21 18 15 12 9 7 6 5 5 5 5 5 6 7 7 8 8 8 7 7 7 6 7 8 8 7 6 5 5 5 5
26 29 30 29 28 28 30 30 27 25 23 21 19 17 13 10 8 7 7 6 6 6 6 7 8 9 9 9 9 8 8 7 7 7 8 8 7 6 5 5 5 5
26 28 28 29 28 28 31 31 28 27 26 23 21 19 16 13 12 11 10 8 7 7 7 8 9 9 10 10 10 9 9 8 7 7 7 7 6 6 5 6 6 6
26 26 25 28 30 29 31 31 29 28 27 25 23 20 18 16 14 14 13 10 9 9 9 9 9 9 10 10 10 10 9 9 8 8 7 7 6 5 5 6 6 6
23 24 25 28 30 29 29 29 29 29 27 25 23 21 19 18 16 16 14 12 12 11 10 9 8 9 10 10 10 10 10 10 10 9 8 8 7 6 6 6 6 5
20 23 25 27 28 29 29 28 27 27 25 24 23 22 21 19 18 18 16 15 15 14 11 10 10 10 11 11 11 12 11 11 10 10 10 9 8 7 7 8 8 7
21 23 25 26 26 28 30 30 29 28 27 25 24 24 24 22 20 20 20 19 17 14 12 13 12 12 13 13 13 13 13 12 11 11 11 10 9 9 9 9 9 10
21 21 23 25 25 25 28 30 31 31 29 25 23 24 24 23 21 21 20 19 18 15 14 15 16 16 16 15 16 15 13 12 12 11 11 11 11 11 11 12 13 14
19 19 21 23 24 24 25 27 29 30 27 24 21 22 24 24 23 23 22 21 20 18 18 18 19 20 20 19 19 18 17 16 14 13 13 13 13 13 14 15 16 16
17 18 19 21 24 24 24 25 27 27 26 25 23 22 24 25 25 24 24 23 23 22 21 21 22 23 23 23 23 22 21 20 17 16 17 16 15 16 17 18 19 19
17 17 18 20 21 21 21 21 22 24 25 25 26 26 26 27 27 26 25 24 24 23 23 23 25 26 26 26 26 25 25 23 19 18 20 21 19 20 21 21 22 23
18 16 16 16 16 17 18 18 18 20 22 23 24 26 27 28 29 28 26 26 26 27 28 27 28 29 30 29 28 28 29 29 25 21 21 24 23 22 23 23 24 24
15 14 13 13 14 15 15 14 14 15 16 17 18 19 19 19 18 17 18 19 20 23 26 29 30 30 30 30 30 30 31 32 29 23 20 23 25 25 25 25 25 25
12 12 11 11 12 13 13 12 12 12 13 13 13 13 11 10 9 7 7 8 10 11 15 19 22 23 24 25 27 28 29 30 28 23 20 23 25 26 27 27 27 26
11 11 10 10 10 11 12 12 12 12 12 11 10 9 8 8 7 7 6 5 4 4 5 8 10 12 14 16 18 20 22 22 20 18 18 21 24 25 27 28 28 27
Wind_Direction
212 210 211 214 210 203 196 190 187 188 187 180 174 174 175 176 182 188 196 207 213 219 223 218 215 215 212 210 208 211 218 216 216 227 235 239 240 238 237 238 239 239
204 201 205 210 208 200 191 185 183 186 186 179 176 177 178 180 185 192 203 214 220 226 229 226 225 223 219 216 214 209 212 216 216 224 236 241 243 241 238 237 236 237
204 201 204 207 205 196 190 187 183 185 185 180 179 180 180 183 187 195 206 215 224 231 234 234 232 232 227 223 220 212 209 216 218 222 234 241 245 244 238 234 233 234
204 202 202 202 200 195 193 191 185 185 184 180 180 182 182 185 189 198 207 213 223 231 238 241 238 237 232 224 223 217 212 219 223 226 232 236 240 242 240 241 244 238
203 201 201 200 197 194 193 188 184 184 182 179 183 186 185 186 188 195 202 205 217 227 236 242 241 238 228 220 222 219 213 218 222 222 228 231 232 235 234 236 241 241
202 199 199 200 196 192 190 185 183 183 181 182 188 188 186 185 184 189 195 196 208 222 232 239 240 232 217 207 211 212 209 213 216 212 212 214 215 223 227 226 228 232
201 198 198 200 197 193 189 185 183 183 181 185 189 187 184 181 180 184 188 192 201 217 230 238 238 226 208 200 198 199 200 204 207 200 193 194 195 208 220 215 216 221
197 195 197 200 198 193 189 186 184 183 183 186 188 187 184 184 192 195 190 189 193 210 229 237 237 225 211 199 188 189 195 195 199 195 187 190 190 193 198 200 209 213
194 193 196 200 197 193 190 187 185 184 185 188 191 192 195 205 210 202 194 192 187 198 218 228 231 224 212 198 187 191 194 188 195 197 189 191 196 193 193 197 205 206
191 191 195 196 193 192 192 189 186 186 187 194 197 196 200 206 206 197 189 189 183 188 205 216 220 215 204 196 189 192 188 181 194 197 190 194 194 189 199 200 199 201
190 189 192 192 190 192 193 190 188 188 191 199 202 198 196 198 205 210 198 182 178 182 195 207 212 205 194 187 182 184 182 180 193 194 189 198 194 189 204 201 197 201
191 191 190 190 191 193 194 192 190 191 197 203 203 200 198 197 212 224 210 190 177 177 191 203 207 199 189 185 181 181 181 177 181 183 187 202 200 192 200 194 194 198
199 197 190 189 192 194 194 192 192 194 199 205 205 206 207 211 232 237 218 200 185 181 192 200 203 199 191 188 186 184 182 175 170 175 184 197 198 194 203 205 203 198
199 196 190 187 190 195 195 193 194 196 200 205 206 207 213 225 241 238 221 209 198 193 195 198 204 203 198 196 193 189 184 177 173 176 181 187 188 192 203 209 210 211
190 192 193 189 190 196 197 195 197 199 202 206 205 206 214 223 226 222 218 216 209 205 204 206 211 210 207 207 205 199 192 185 182 182 185 190 192 193 201 210 221 229
188 192 196 194 195 197 198 197 200 202 204 206 205 206 212 215 211 213 220 220 216 217 216 215 217 216 214 213 209 207 204 198 193 190 192 199 202 203 214 226 237 244
189 192 195 199 201 200 198 198 200 203 205 208 209 209 212 213 209 212 218 219 221 225 223 218 220 220 218 214 208 209 210 209 209 205 203 208 211 215 223 233 240 243
193 196 200 204 205 204 203 202 202 205 209 212 212 212 214 215 214 217 222 225 229 231 224 218 218 217 216 212 208 210 210 212 220 222 219 218 219 224 231 240 249 251
196 199 202 203 207 211 210 208 208 210 212 215 216 217 218 220 221 224 229 233 238 238 229 221 217 215 213 209 207 210 211 214 223 230 236 236 230 229 233 238 245 249
203 206 206 202 205 211 210 210 213 215 216 219 222 222 222 221 222 225 226 228 231 232 229 226 222 217 214 210 208 208 206 210 218 225 237 245 245 244 245 245 247 250
214 217 215 205 201 205 208 211 214 216 218 219 221 223 223 223 225 227 228 229 230 231 231 230 227 222 218 215 213 211 210 216 229 234 233 240 251 257 257 256 258 258
220 219 217 211 208 209 209 209 212 215 217 219 222 226 227 229 229 228 228 230 233 236 238 235 231 230 229 225 221 220 220 229 251 257 242 237 244 250 254 259 263 263
221 220 220 216 211 209 209 210 214 218 221 224 227 231 234 238 239 235 232 234 238 242 242 239 237 237 240 240 238 236 236 243 260 266 248 240 244 247 254 262 267 268
209 207 205 199 194 196 203 209 214 221 226 227 230 238 243 244 242 238 234 233 238 242 243 242 244 245 248 250 250 249 250 256 266 267 251 243 249 254 259 263 266 270
185 183 184 183 183 187 194 201 208 216 221 222 228 238 240 228 216 209 208 214 224 236 241 245 249 252 253 254 255 256 259 264 270 268 253 248 254 262 265 265 267 271
158 162 160 155 158 169 176 182 192 202 208 211 212 207 198 196 196 189 179 178 185 206 233 244 249 251 252 254 258 261 263 265 266 261 252 251 257 263 266 267 269 273